"Pseudo-MPEC" for P10LfOv

Created 2019 Jan 15 11:18:18 UT using Find_Orb

Click here for an explanation of pseudo-MPECs

 
 Astrometry: 
     P10LfOv  C2019 01 09e%pLQ=JAstrometrydNG@R;CoK[mP9tvl=ZV-g[Xm3urQ#?rVZ;%F51
     P10LfOv  C2019 01 09.aF^Scr/?QU^Dh3?j5ko`s_YA2A]X6BR;XQppO8]Fredacted;2NF51
     P10LfOv  C2019 01 09-7n@3bp^B`Zt`P-7FWA_;gKCHNKSlZ:^(5q.wgFsM[m41%12FJMgF51
     P10LfOv  C2019 01 09J/8.7M%y$lwt[jbFEAWWB\click^/WbE57C`G[n8.NlftlcnM-0MF51
     P10LfOv KC2019 01 10U)x=)gUMVavHIJ:5x,RG3_W`lcE/]eeA=\$+k^2!EbJHfd7eKi28H21
     P10LfOv KC2019 01 10^D=#e5_Ct+',,IV(5u?.287VkeciI-aMv@JJK,0WfhereYhoo=hoH21
     P10LfOv KC2019 01 10G-Uj1+7C[Wn+(T:@u(ijEX:/vq+hr8C=I9H;]^r+iU_+oY[QIKP[H21
     P10LfOv  C2019 01 14)6A-E@/`Wm2for]g!B64#A7)qrHcpd'EGqAN$fHgLY[^urP:p8V!F51
     P10LfOv  C2019 01 14.x5Y?=]_?J1x_JMWP#ruj8QE4n)3\keqJ_haD-e0+KZX\d5.0R1wF51
     P10LfOv  C2019 01 14;\SeAA@Nk*YpexplanationdkS(Z;FDnW:kxj7na?cDr(?9._gTiF51

Station data:
(F51) Pan-STARRS 1, Haleakala  (N20.707235 W156.255910)  US/Hawaii.
   Observers N. Primak, A. Schultz, S. Watters, J. Thiel, T. Goggia. Measurer
   PS1 Science Consortium. 1.8-m Ritchey-Chrétien + CCD.
(H21) Astronomical Research Observatory, Westfield  (N39.483057 W87.968270)
   US/Illinois. 0.76-m f/3.0 astrograph + CCD.

Orbital elements:  P10LfOv
   Perihelion 2018 Apr 23.819822 +/- 7.73 TT = 19:40:32 (JD 2458232.319822)
Epoch 2019 Jan 14.0 TT = JDT 2458497.5   Earth MOID: 0.6984   AutoNEOCP
M  96.18731493 +/- 3.1              (J2000 ecliptic)
n   0.36272437 +/- 0.00195          Peri.  342.94487 +/- 1.9
a   1.94723434 +/- 0.00698          Node    24.46163 +/- 0.43
e   0.1313625 +/- 0.00708           Incl.   21.21485 +/- 0.08
P   2.72/992.47d           H 19.0   G  0.15   U  8.6  
q 1.69144064 +/- 0.00809    Q 2.20302803 +/- 0.0215
From 10 observations 2019 Jan. 9-14; mean residual 0".09
Residuals in arcseconds: 
190109 F51  .08+  .01-    190110 H21  .16-  .04-    190114 F51  .10-  .08+    
190109 F51  .01-  .04-    190110 H21  .19+  .19+    190114 F51  .01+  .03-    
190109 F51  .01-  .06+    190110 H21  .04-  .15-    
190109 F51  .06-  .01-    190114 F51  .10+  .06-    

Ephemerides (geocentric):
Date (UTC) HH   RA              Dec         delta   r     elong  mag " sig PA
---- -- -- --  -------------   -----------  ------ ------ -----  --- ---- ---
2019 01 15 11  09 25 12.405   +56 36 53.63  1.1525 2.0092 140.2 21.8 .585  31
2019 01 15 12  09 25 07.891   +56 37 12.56  1.1525 2.0093 140.2 21.8 .611  31
2019 01 15 13  09 25 03.372   +56 37 31.44  1.1524 2.0093 140.2 21.8 .637  31
2019 01 15 14  09 24 58.848   +56 37 50.27  1.1524 2.0094 140.2 21.8 .664  31
2019 01 15 15  09 24 54.318   +56 38 09.04  1.1524 2.0094 140.2 21.8 .691  31
2019 01 15 16  09 24 49.784   +56 38 27.76  1.1524 2.0095 140.2 21.8 .718  31
2019 01 15 17  09 24 45.244   +56 38 46.43  1.1524 2.0096 140.2 21.8 .746  31
2019 01 15 18  09 24 40.699   +56 39 05.04  1.1524 2.0096 140.2 21.8 .774  31
2019 01 15 19  09 24 36.149   +56 39 23.60  1.1525 2.0097 140.3 21.8 .802  31
2019 01 15 20  09 24 31.594   +56 39 42.11  1.1525 2.0098 140.3 21.8 .831  31
2019 01 15 21  09 24 27.035   +56 40 00.56  1.1525 2.0098 140.3 21.8 .859  31
2019 01 15 22  09 24 22.470   +56 40 18.96  1.1525 2.0099 140.3 21.8 .889  31
2019 01 15 23  09 24 17.900   +56 40 37.31  1.1525 2.0099 140.3 21.8 .918  31
2019 01 16 00  09 24 13.325   +56 40 55.60  1.1525 2.0100 140.3 21.8 .948  31
2019 01 16 01  09 24 08.745   +56 41 13.83  1.1525 2.0101 140.3 21.8 .978  31
2019 01 16 02  09 24 04.160   +56 41 32.02  1.1525 2.0101 140.3 21.8 1.01  31
2019 01 16 03  09 23 59.570   +56 41 50.15  1.1525 2.0102 140.3 21.8 1.04  31
2019 01 16 04  09 23 54.975   +56 42 08.22  1.1525 2.0103 140.3 21.8 1.07  31
2019 01 16 05  09 23 50.376   +56 42 26.24  1.1525 2.0103 140.3 21.8 1.10  31
2019 01 16 06  09 23 45.771   +56 42 44.21  1.1525 2.0104 140.4 21.8 1.13  31
2019 01 16 07  09 23 41.161   +56 43 02.12  1.1525 2.0105 140.4 21.8 1.17  31
2019 01 16 08  09 23 36.547   +56 43 19.98  1.1525 2.0105 140.4 21.8 1.20  31
2019 01 16 09  09 23 31.928   +56 43 37.78  1.1525 2.0106 140.4 21.8 1.23  31
2019 01 16 10  09 23 27.303   +56 43 55.53  1.1525 2.0106 140.4 21.8 1.26  31
2019 01 16 11  09 23 22.674   +56 44 13.22  1.1525 2.0107 140.4 21.8 1.30  31
2019 01 16 12  09 23 18.041   +56 44 30.86  1.1525 2.0108 140.4 21.8 1.33  31
2019 01 16 13  09 23 13.402   +56 44 48.45  1.1525 2.0108 140.4 21.8 1.36  31
2019 01 16 14  09 23 08.758   +56 45 05.98  1.1525 2.0109 140.4 21.8 1.40  31
2019 01 16 15  09 23 04.110   +56 45 23.45  1.1525 2.0110 140.4 21.8 1.43  31
2019 01 16 16  09 22 59.457   +56 45 40.87  1.1525 2.0110 140.4 21.8 1.47  31
2019 01 16 17  09 22 54.799   +56 45 58.23  1.1526 2.0111 140.5 21.8 1.50  31
2019 01 16 18  09 22 50.137   +56 46 15.54  1.1526 2.0112 140.5 21.8 1.54  31
2019 01 16 19  09 22 45.470   +56 46 32.80  1.1526 2.0112 140.5 21.8 1.57  30
2019 01 16 20  09 22 40.798   +56 46 49.99  1.1526 2.0113 140.5 21.8 1.61  30
2019 01 16 21  09 22 36.121   +56 47 07.14  1.1526 2.0113 140.5 21.8 1.65  30
2019 01 16 22  09 22 31.439   +56 47 24.23  1.1526 2.0114 140.5 21.8 1.68  30
2019 01 16 23  09 22 26.753   +56 47 41.26  1.1526 2.0115 140.5 21.8 1.72  30
2019 01 17 00  09 22 22.063   +56 47 58.23  1.1526 2.0115 140.5 21.8 1.76  30
2019 01 17 01  09 22 17.367   +56 48 15.15  1.1526 2.0116 140.5 21.8 1.80  30
2019 01 17 02  09 22 12.667   +56 48 32.02  1.1526 2.0117 140.5 21.8 1.83  30
2019 01 17 03  09 22 07.963   +56 48 48.83  1.1527 2.0117 140.5 21.8 1.87  30
2019 01 17 04  09 22 03.254   +56 49 05.58  1.1527 2.0118 140.5 21.8 1.91  30
2019 01 17 05  09 21 58.540   +56 49 22.28  1.1527 2.0118 140.6 21.8 1.95  30
2019 01 17 06  09 21 53.821   +56 49 38.92  1.1527 2.0119 140.6 21.8 1.99  30
2019 01 17 07  09 21 49.098   +56 49 55.51  1.1527 2.0120 140.6 21.8 2.03  30
2019 01 17 08  09 21 44.371   +56 50 12.04  1.1527 2.0120 140.6 21.8 2.07  30
2019 01 17 09  09 21 39.639   +56 50 28.51  1.1527 2.0121 140.6 21.8 2.11  30
2019 01 17 10  09 21 34.902   +56 50 44.92  1.1527 2.0122 140.6 21.8 2.15  30